Location: Oberwangen
(47.4286°N, 8.9679°E)
Time: 07:45:42
(UTC+00:00)

Cosmos 1447 Rocket - Pass Details

Date: 26 October 2021
Orbit: 953 x 996 km, 82.9° (Epoch: 27 November)

Event Time Altitude Azimuth Distance (km) Brightness Sun altitude
Rises 17:54:20 0° 351° (N) 3,644 7.6 -17.1°
Reaches altitude 10° 17:56:51 10° 352° (N) 2,693 6.9 -17.5°
Maximum altitude 18:03:01 86° 81° (E) 964 4.4 -18.6°
Drops below altitude 10° 18:09:10 10° 171° (S) 2,683 6.7 -19.6°
Sets 18:11:39 0° 172° (S) 3,629 7.4 -20.0°
